Theta_e
332 330 330 331 332 331 330 331 331 330 330 329 330 331 330 331 331 329 328 328 329 329 328 329 330 330 331 331 330 330 330 328 329 330 330 329 328 327 329 329 328 327 327 327 327 326 326 327 327 326 326 326 326 326 326 326 326 325 324 324 324 324 324
332 330 331 331 331 331 332 331 330 331 330 329 331 332 331 331 330 328 327 328 329 329 328 329 330 330 331 332 331 330 330 329 329 330 330 329 328 327 328 329 328 327 328 328 328 326 326 326 327 326 326 326 326 326 326 325 325 324 323 323 323 323 323
332 331 331 331 332 332 332 331 331 331 330 330 332 332 332 331 330 329 329 330 330 330 329 330 331 331 331 332 330 329 330 330 330 330 330 329 329 328 327 328 327 327 328 328 328 328 326 326 326 326 326 326 326 326 325 324 324 324 323 323 322 322 321
332 330 330 331 332 332 332 331 331 331 331 331 332 332 332 330 329 329 330 330 330 330 330 330 330 330 331 331 331 329 330 330 329 329 329 329 329 328 327 328 328 327 327 327 327 327 327 327 326 326 326 326 326 325 324 324 324 323 323 323 322 322 320
330 329 329 331 331 331 331 331 331 332 332 332 332 332 332 330 328 328 328 328 329 330 330 330 330 329 329 331 331 330 329 329 329 329 329 329 329 329 328 329 329 327 327 327 326 326 326 327 327 326 326 326 326 325 324 324 323 322 322 322 322 322 320
330 328 328 329 330 330 331 331 332 332 333 333 333 332 331 329 327 326 326 326 328 329 329 329 329 328 328 329 330 329 328 328 328 328 329 329 328 329 328 329 329 327 327 327 326 326 326 327 327 327 326 326 326 325 324 324 323 321 320 320 321 321 320
330 328 327 329 330 330 331 331 332 332 332 332 331 330 328 327 325 324 323 324 326 327 327 328 329 328 328 328 328 328 327 327 327 328 328 328 328 328 328 329 328 327 328 327 326 326 326 326 327 327 327 326 325 324 323 323 322 320 318 319 319 317 316
328 328 328 329 330 330 331 332 332 333 332 331 329 327 326 325 325 324 323 322 324 325 324 325 327 328 329 328 328 327 327 326 326 327 327 327 327 327 327 328 328 327 327 326 325 326 326 325 326 327 326 325 324 323 322 321 320 319 318 317 316 314 314
327 328 328 328 330 330 331 333 333 332 331 330 328 326 324 324 324 323 323 323 324 324 322 322 326 329 329 328 328 328 327 326 327 327 327 327 327 327 327 327 328 327 327 326 325 325 326 326 326 326 324 323 323 323 323 321 319 318 317 316 315 314 313
326 326 326 326 329 330 331 332 332 331 331 329 326 325 324 323 322 322 324 325 324 323 321 321 324 327 328 328 328 328 327 327 326 326 327 327 327 327 326 327 327 327 326 325 325 326 326 326 327 326 324 322 322 322 323 321 319 318 317 316 314 313 311
326 326 326 327 328 330 331 332 331 331 331 328 327 326 324 321 320 322 324 325 324 323 321 321 323 324 325 325 326 328 327 326 326 325 326 327 327 327 327 327 327 327 326 325 325 326 326 326 326 326 325 324 322 322 321 320 318 317 316 315 314 312 311
327 327 327 328 329 330 330 331 331 331 330 329 329 327 323 322 322 323 323 323 324 322 322 324 326 326 325 322 322 326 327 326 326 326 326 327 327 326 326 327 326 326 326 325 326 327 326 325 326 325 325 324 323 321 320 319 317 316 315 314 313 312 311
328 328 328 329 330 330 330 331 331 330 329 329 329 327 324 324 326 325 323 322 322 322 323 325 327 327 324 320 321 326 326 326 326 326 326 326 326 326 326 326 326 325 326 326 325 326 326 325 325 325 324 324 323 322 321 318 317 315 313 314 313 312 310
328 327 328 329 329 330 330 331 330 329 329 329 328 326 323 323 324 325 324 322 322 323 323 324 326 326 323 319 322 326 326 327 327 327 327 327 327 327 326 326 326 326 326 326 325 326 325 324 325 325 324 323 323 323 320 318 317 315 313 312 312 311 310
327 327 329 329 329 330 330 330 329 329 328 328 327 323 319 321 323 323 323 322 322 323 322 322 325 326 322 319 321 324 325 326 326 325 325 325 326 326 326 326 326 326 327 326 326 326 325 323 324 325 323 322 322 323 321 317 316 315 313 311 310 310 309
326 327 328 328 329 330 330 329 329 328 328 327 324 319 318 322 325 324 322 322 323 323 321 321 323 325 323 319 318 322 324 324 325 324 324 323 323 324 324 326 326 326 326 326 326 326 326 324 324 325 324 323 322 322 322 320 317 315 314 312 310 309 309
325 327 327 328 330 330 329 329 327 326 327 324 321 320 321 322 324 324 322 322 324 323 321 321 323 325 324 321 321 323 324 324 325 324 323 323 324 324 324 325 326 326 326 326 326 326 326 325 325 324 325 325 323 322 322 322 320 318 315 312 310 309 310
325 328 328 329 331 329 326 327 326 325 323 321 323 325 323 321 324 324 323 323 324 323 320 320 323 325 323 323 323 323 323 324 323 323 323 323 324 325 323 323 324 326 325 325 326 327 326 325 325 324 324 324 323 322 321 321 321 319 316 313 311 310 310
327 329 329 330 330 328 326 326 325 323 321 322 326 326 322 322 324 324 323 323 324 323 319 318 322 323 321 322 323 321 322 323 322 323 323 323 323 323 322 321 322 325 325 325 325 326 326 326 325 324 324 323 322 320 319 319 319 318 316 313 312 311 310
328 329 329 329 330 329 328 326 324 322 322 324 327 325 322 322 323 323 323 324 323 321 318 319 322 322 320 322 322 321 322 322 322 322 322 321 321 321 320 320 322 324 325 325 324 325 325 326 325 324 323 322 320 318 318 317 317 317 315 313 312 311 311
328 329 328 329 329 329 328 326 324 323 323 325 326 324 322 322 321 321 322 323 321 320 318 319 322 322 320 322 322 322 322 322 321 321 320 321 321 320 320 320 321 323 324 324 325 325 325 325 324 323 321 320 319 318 317 317 316 315 315 315 313 311 312
329 329 328 329 329 329 327 325 324 324 324 324 324 323 322 321 320 320 321 321 320 319 318 318 319 320 321 321 321 321 321 321 321 320 320 321 320 319 320 320 320 322 323 323 325 326 325 324 323 322 321 321 320 319 317 316 316 316 316 316 315 314 313
329 329 328 328 328 328 326 325 325 325 324 323 323 322 321 320 320 320 321 320 319 318 317 317 318 319 320 321 321 320 320 321 321 319 319 320 319 318 320 320 319 320 322 323 324 326 325 323 322 321 321 321 320 319 317 316 316 316 316 316 316 315 314
329 328 328 327 327 326 326 326 326 325 324 322 322 321 320 319 319 320 320 320 319 319 318 317 318 318 319 320 320 320 320 320 320 319 319 320 320 319 319 319 318 318 321 323 324 325 325 323 322 322 322 321 320 319 318 317 316 316 316 317 317 317 316
328 327 327 327 327 326 325 326 326 324 322 321 320 320 319 319 320 320 320 320 319 319 318 316 316 317 318 320 319 319 319 318 319 319 319 319 320 319 318 318 317 317 320 323 324 324 324 323 322 322 322 321 320 319 318 317 316 316 316 317 318 318 319
328 327 326 327 327 326 325 325 325 323 321 319 319 319 318 319 319 319 319 319 319 318 318 316 316 316 317 318 319 318 318 316 317 318 318 319 319 319 318 318 318 318 319 321 323 324 323 323 322 322 322 321 321 320 319 318 317 318 318 317 317 318 319
326 326 327 326 326 326 325 324 323 321 320 319 319 319 318 319 318 318 319 317 315 314 314 315 315 315 317 318 318 318 317 317 317 318 319 319 319 320 320 320 320 320 319 319 320 320 321 321 320 320 320 320 320 319 319 319 318 318 318 318 318 318 319
326 326 326 325 325 324 324 323 322 320 320 320 319 319 319 318 318 319 318 314 311 310 310 310 310 311 314 316 317 317 317 318 319 319 319 319 319 319 320 320 319 319 319 319 318 318 318 318 318 318 318 317 317 317 317 318 317 316 315 316 316 316 317
326 325 324 324 323 322 321 321 321 320 320 320 319 319 319 319 319 319 316 313 312 313 312 311 311 310 311 312 313 315 317 318 319 319 318 318 318 318 319 319 318 318 318 319 319 318 318 318 318 318 318 318 318 317 317 317 316 316 316 315 315 314 314
324 324 323 323 322 320 320 320 320 320 320 319 320 320 319 319 319 317 315 313 314 314 314 314 314 313 313 312 311 313 315 317 319 319 319 319 318 318 318 318 317 317 318 318 318 318 318 318 318 318 318 319 319 319 318 318 318 318 319 318 318 317 316
321 322 322 322 321 321 321 321 321 320 320 320 320 319 318 318 317 316 315 314 313 313 314 315 315 315 315 315 314 315 316 317 319 319 320 320 319 319 319 318 318 318 319 319 319 318 318 318 318 318 318 318 318 318 317 317 317 318 318 319 319 319 319
317 319 320 320 319 319 319 319 318 318 318 318 317 316 316 316 316 316 315 314 313 314 315 316 315 316 316 316 316 317 318 318 319 320 320 320 320 319 319 319 319 319 318 318 318 318 318 318 318 318 318 318 317 317 317 317 317 317 318 318 318 319 319
314 315 315 315 315 315 315 315 315 316 316 315 315 315 316 316 315 315 315 314 315 316 317 317 317 317 317 317 317 318 318 317 317 318 318 317 317 317 317 317 317 316 316 315 315 314 313 313 313 314 314 314 314 314 314 314 313 313 313 314 314 314 315
312 312 312 312 313 313 314 314 314 315 315 314 314 315 316 316 315 316 316 316 317 317 317 317 318 318 318 318 318 317 318 317 316 315 316 316 316 316 315 314 313 313 313 312 311 310 310 310 310 309 309 308 307 306 306 305 304 304 303 304 304 304 304
307 308 308 309 310 310 311 313 314 314 314 315 315 316 316 315 314 314 314 313 314 314 313 313 315 315 315 315 315 313 312 311 310 310 310 311 312 311 310 308 307 307 306 306 306 306 305 305 304 303 302 301 301 300 300 299 299 299 299 299 299 299 299
303 303 303 304 305 305 305 306 307 307 308 309 310 310 310 308 307 307 307 306 305 305 305 305 308 310 310 309 309 308 307 305 304 303 303 303 303 303 302 301 301 301 300 300 300 300 299 299 299 299 299 299 299 299 299 299 300 300 300 300 300 300 300
301 301 301 302 302 303 304 304 304 304 304 304 305 304 304 304 304 304 304 304 303 302 301 301 302 303 303 302 302 302 302 301 300 299 299 299 299 299 299 299 298 298 298 298 298 299 299 299 299 299 299 299 300 300 300 301 302 303 302 303 303 304 304
Wind_Speed
20 17 18 21 21 19 18 16 15 14 15 15 15 15 13 12 13 14 13 13 12 12 12 13 13 12 12 12 13 15 15 13 12 12 12 13 14 14 13 10 6 7 8 8 9 12 16 18 14 12 13 13 13 13 12 10 8 8 9 9 8 8 8
19 17 18 21 22 21 19 18 16 15 15 14 14 13 12 12 14 14 13 13 13 12 13 13 12 12 12 12 14 15 14 13 12 12 12 12 12 13 14 12 9 9 10 9 9 9 12 17 16 14 15 14 13 12 12 11 10 10 10 9 7 7 8
19 19 20 22 23 22 21 20 18 16 16 15 15 15 14 14 14 14 14 14 13 12 13 14 12 12 12 12 13 13 13 13 13 13 11 10 11 13 14 13 12 12 13 13 13 12 12 12 14 16 17 16 15 15 15 14 13 11 9 8 7 6 6
20 21 21 23 24 23 22 21 19 17 17 17 17 17 16 15 14 14 14 13 13 13 13 13 12 13 14 13 12 12 12 12 12 13 11 10 11 13 13 12 12 13 13 14 15 15 14 13 14 18 17 15 15 18 19 17 13 11 9 9 8 5 3
21 22 23 23 24 23 22 21 19 19 19 19 19 18 16 15 14 14 14 14 14 15 14 12 12 13 14 13 12 13 14 12 12 13 12 12 12 12 12 11 12 12 10 11 13 14 13 12 14 18 18 16 18 20 19 17 14 11 10 10 9 7 5
21 22 23 23 22 21 21 21 20 20 20 20 19 18 17 15 15 15 15 15 15 16 15 14 13 12 13 13 13 13 14 13 12 12 12 12 12 12 11 11 12 12 11 12 13 13 13 11 13 18 18 17 19 21 19 17 15 14 12 11 10 10 10
23 23 23 23 21 21 21 22 21 21 20 20 19 18 16 15 14 15 15 15 15 16 15 14 13 12 12 12 12 13 13 12 12 11 11 11 11 12 12 12 12 11 11 13 13 13 15 14 15 17 18 18 18 20 20 18 17 16 14 13 11 9 9
25 24 23 22 21 22 22 22 22 21 19 19 18 17 17 16 14 15 15 14 14 15 14 13 12 11 11 11 11 11 12 12 11 11 11 11 10 11 12 12 12 12 13 14 13 13 14 13 13 15 19 22 21 20 21 20 17 15 15 15 12 8 6
25 25 25 23 22 22 21 21 21 20 18 17 16 16 16 15 14 15 15 13 13 14 13 13 12 11 10 10 10 10 10 10 11 11 11 11 10 11 12 13 12 13 14 14 12 13 15 14 14 16 19 24 26 24 23 21 18 16 16 17 14 11 9
26 26 26 25 24 23 22 20 19 19 17 15 15 16 16 16 16 17 16 14 14 13 13 13 13 12 11 10 10 9 10 10 9 10 11 11 11 10 11 12 12 13 14 14 13 13 16 17 18 19 19 20 24 26 26 23 22 21 20 18 14 13 12
26 25 26 26 26 25 23 21 19 18 16 14 15 15 15 17 18 18 17 16 14 13 13 13 12 12 11 11 11 9 9 9 8 9 10 11 12 10 10 11 12 13 13 13 14 14 17 21 21 22 20 19 19 22 24 24 23 21 20 20 16 12 10
27 25 26 27 27 26 25 23 21 18 16 15 15 14 16 17 17 17 17 16 14 13 14 13 11 10 9 10 12 10 9 9 9 9 10 10 11 10 11 11 12 12 12 13 14 13 16 21 23 23 21 20 19 19 20 21 22 22 19 19 18 13 9
28 26 27 28 27 26 26 25 22 19 17 17 15 14 15 17 17 16 16 14 13 14 15 15 11 9 7 9 11 10 9 10 10 10 10 10 10 10 10 11 11 10 10 12 14 13 14 18 22 25 22 21 18 15 18 20 20 22 20 16 15 13 10
28 27 28 29 28 27 26 25 23 20 18 18 16 15 15 17 17 16 13 12 13 13 14 14 11 8 7 9 10 9 10 10 10 10 9 10 10 9 9 10 10 8 9 12 13 14 15 16 21 26 24 23 18 11 14 21 20 20 21 17 15 13 11
28 28 29 30 30 29 28 26 23 21 20 18 15 14 15 16 15 13 11 12 13 11 11 12 11 7 6 7 9 9 9 10 10 8 6 7 9 9 9 10 9 8 9 11 13 13 15 16 20 26 25 24 21 12 10 18 21 19 20 19 16 15 13
29 28 30 32 32 31 29 26 23 22 20 17 15 14 15 16 15 11 11 12 12 9 7 9 11 9 5 6 10 11 9 9 9 7 3 4 7 7 8 11 10 9 10 11 12 13 15 17 19 23 24 22 22 17 10 12 18 18 19 19 18 17 16
29 30 32 33 33 32 29 25 24 22 18 16 16 15 16 17 16 12 12 13 12 8 6 9 12 9 6 8 12 12 9 8 9 7 3 5 7 6 6 9 8 9 12 12 13 13 15 17 18 20 23 20 20 20 13 10 13 15 17 20 19 18 16
31 33 34 34 34 33 30 26 24 21 18 17 18 16 16 18 16 13 13 13 13 8 6 11 13 9 7 10 11 10 8 8 9 8 5 5 8 7 4 3 5 8 12 12 13 14 13 15 17 18 21 19 18 18 14 12 12 14 17 20 19 17 15
34 36 35 33 33 33 30 27 25 21 19 21 20 17 17 20 18 15 13 13 13 9 7 12 14 10 9 10 9 9 10 9 8 8 7 5 6 5 2 0 3 6 9 11 13 14 13 13 15 16 18 18 15 13 13 13 13 16 18 18 16 17 15
36 36 34 31 31 31 29 26 24 21 22 22 20 17 17 19 19 17 15 14 13 9 9 13 13 10 11 11 9 9 11 10 8 7 8 7 5 4 1 1 3 4 6 9 13 14 12 13 13 14 16 16 13 11 12 13 14 17 18 16 16 17 15
35 31 31 30 29 29 27 25 24 23 24 22 19 18 18 19 19 18 16 14 12 10 11 13 12 10 11 11 11 10 11 11 9 8 8 7 5 4 2 1 1 4 7 9 12 14 12 12 13 15 17 15 11 11 13 14 16 18 17 14 15 17 16
34 29 31 31 28 28 27 25 24 24 23 21 18 18 19 20 20 18 16 14 12 12 13 12 11 11 10 11 11 11 12 11 9 9 7 4 3 2 2 1 2 3 7 8 12 15 13 12 15 16 16 12 9 12 16 17 16 16 16 15 13 15 17
33 30 32 31 28 27 27 26 24 22 21 20 19 18 20 21 20 18 16 15 14 14 13 12 12 11 10 11 11 11 13 11 8 8 6 4 3 2 2 2 3 3 5 8 11 15 14 14 16 15 12 11 10 12 17 18 14 12 16 16 14 16 18
34 30 30 29 28 29 29 27 24 22 21 22 21 19 20 21 20 18 17 16 15 15 14 12 13 12 10 11 12 11 12 12 9 7 6 5 5 3 2 1 3 3 3 7 9 13 15 16 16 14 11 11 11 12 15 17 14 13 16 15 13 13 15
34 30 29 30 31 31 30 28 26 23 24 24 21 20 20 19 18 18 18 17 14 14 13 13 13 13 11 11 12 11 11 12 10 7 6 5 4 3 2 1 2 2 3 6 8 10 14 16 16 13 11 11 11 12 15 16 15 14 16 15 13 11 10
32 30 30 31 32 31 30 28 26 24 24 23 21 20 20 18 17 17 17 15 13 12 12 12 13 14 12 12 12 11 10 11 10 8 5 3 4 4 4 2 1 3 5 7 7 9 11 13 13 13 13 12 11 12 13 14 14 14 15 16 17 15 13
30 32 32 32 31 31 30 28 26 25 24 23 21 21 20 18 17 16 15 12 11 11 11 12 13 14 14 14 14 12 10 10 10 8 7 6 7 8 7 5 4 4 4 5 6 8 10 9 10 11 12 12 12 11 11 12 13 14 15 16 17 18 17
30 32 32 31 29 29 27 26 27 26 23 20 21 21 19 18 17 15 13 11 11 12 12 12 12 13 15 16 16 14 12 11 10 9 10 9 8 8 8 8 6 5 4 4 5 7 8 8 8 9 10 11 11 11 12 12 13 14 15 16 17 18 19
32 30 30 29 27 25 24 24 25 24 21 21 23 22 20 18 16 14 13 12 12 13 13 12 12 12 12 14 16 16 13 11 10 9 9 9 8 8 8 7 6 5 5 5 5 6 7 7 8 8 9 9 10 11 13 14 14 15 15 16 17 19 20
31 30 29 28 26 25 24 24 24 23 23 23 23 22 20 18 16 14 14 14 13 13 12 13 13 12 11 11 14 14 12 11 10 9 9 8 8 9 9 8 7 7 6 6 6 7 8 9 9 10 10 10 11 12 13 14 15 15 15 17 17 18 20
30 29 27 27 27 26 26 26 25 24 26 26 23 20 17 14 13 13 13 13 13 13 13 13 12 12 11 11 12 11 10 11 11 9 9 9 8 9 9 9 9 9 9 9 9 9 10 11 12 12 13 14 14 15 16 16 17 18 18 18 19 19 20
27 27 26 26 26 26 26 26 24 23 23 23 20 15 11 10 11 12 13 14 14 13 12 12 12 12 12 11 12 11 10 9 10 9 9 10 10 10 9 9 10 10 10 10 10 10 11 12 13 14 15 16 17 18 18 18 19 20 21 22 22 23 24
20 21 21 20 20 19 19 19 19 19 18 15 12 9 8 9 11 11 12 14 13 11 10 11 11 11 11 11 12 12 12 11 10 10 10 10 10 10 10 10 10 10 10 10 11 11 12 12 13 14 15 16 17 18 19 19 20 21 22 23 24 26 26
17 18 17 15 14 14 13 13 14 15 15 12 9 8 8 9 11 12 12 12 10 9 9 9 10 10 10 11 11 11 12 11 9 9 9 9 9 9 10 10 10 11 11 12 12 12 13 13 14 15 16 18 19 20 21 22 23 23 24 24 25 26 27
18 19 19 17 16 16 14 12 11 13 14 15 13 12 11 11 11 12 12 10 8 8 7 6 8 9 9 10 10 9 9 8 8 8 9 10 10 11 12 12 12 12 13 13 14 15 16 17 17 18 19 19 20 20 21 21 22 22 22 22 22 23 23
21 20 19 19 20 21 20 18 17 16 14 13 13 13 12 12 11 11 10 8 6 4 3 3 5 7 6 7 7 8 8 8 9 9 10 9 9 10 12 12 12 13 14 14 15 15 15 16 16 16 16 16 16 15 15 15 16 16 16 17 17 17 18
20 20 19 19 21 22 21 20 21 21 20 18 17 17 15 13 11 10 9 6 4 4 3 3 2 2 1 2 4 5 6 7 7 7 7 7 7 7 9 10 10 10 11 10 10 10 9 10 10 11 11 11 12 12 12 11 11 12 12 13 14 15 16
Wind_Direction
197 186 185 185 188 194 192 187 186 186 189 190 190 193 192 190 194 198 196 188 186 191 193 192 190 186 184 183 183 187 190 190 190 193 194 191 191 191 190 195 189 171 176 180 178 173 163 161 165 167 168 170 169 167 161 155 157 146 129 129 142 149 152
198 190 186 183 186 193 191 189 187 183 188 189 184 186 188 189 191 193 194 187 182 185 186 185 184 183 184 184 186 187 184 187 192 191 191 194 195 195 194 196 192 180 176 169 175 186 172 163 166 171 171 168 169 170 157 143 145 144 135 143 160 165 163
196 187 185 185 184 185 185 184 182 180 185 185 179 185 194 192 187 188 192 187 180 179 180 182 184 182 186 189 188 185 181 184 191 190 189 194 196 197 199 199 199 194 183 175 176 179 178 173 169 170 172 172 166 158 147 141 146 150 152 170 188 190 171
193 186 184 185 183 182 182 180 180 180 183 183 181 188 194 191 187 186 188 185 181 175 174 182 188 184 186 192 187 183 185 185 188 191 193 197 196 194 197 203 210 206 194 189 187 181 180 178 168 165 169 170 158 147 144 144 148 158 171 192 209 216 179
191 188 186 185 184 184 182 180 180 180 182 183 183 189 193 189 187 186 185 186 183 175 172 184 195 188 185 188 185 185 188 185 185 190 195 198 197 196 197 201 208 207 199 199 196 190 190 185 172 165 163 162 155 149 149 148 151 163 178 198 217 241 248
191 189 189 188 187 185 182 181 182 182 183 185 187 191 192 189 188 189 188 187 182 176 176 186 194 188 181 183 183 184 187 185 183 187 193 195 195 200 203 201 204 200 191 191 190 190 193 189 179 168 161 164 162 155 156 159 162 168 182 203 220 239 247
192 190 190 192 191 186 184 183 183 185 186 189 190 190 188 188 188 189 190 187 181 180 183 187 188 184 180 182 182 181 184 187 186 186 192 194 193 201 207 204 203 197 189 187 184 186 191 188 182 171 160 164 166 158 157 162 169 173 184 207 226 232 228
190 190 191 194 194 188 184 183 184 188 191 191 189 187 187 188 187 188 190 188 182 183 188 187 182 180 180 182 182 179 181 186 189 191 196 198 194 197 204 205 203 198 192 190 184 183 190 192 187 176 160 157 161 162 161 164 171 177 187 200 215 229 230
187 189 191 193 194 187 184 185 185 189 192 191 190 192 193 192 189 187 186 187 185 183 185 183 176 175 177 181 179 174 177 183 189 196 201 204 198 194 200 203 202 201 195 194 191 180 184 192 187 172 160 156 159 163 168 173 176 180 194 200 200 211 233
191 188 188 189 190 184 182 186 186 188 191 192 192 193 195 194 188 183 181 185 187 183 179 176 174 172 172 177 176 172 177 178 185 195 199 203 201 197 200 199 199 205 200 196 198 184 179 187 183 171 167 165 162 162 169 180 181 182 195 205 205 207 219
196 190 186 185 184 181 181 183 186 188 190 190 188 185 188 188 182 181 183 186 187 182 171 166 169 170 170 176 175 172 176 171 173 185 184 192 199 197 198 200 201 207 202 196 202 195 180 181 181 177 179 182 179 173 172 175 179 184 195 204 216 229 226
197 193 188 183 181 181 180 181 186 189 188 188 186 183 184 182 178 182 187 188 187 179 163 155 164 175 176 175 172 171 175 170 169 175 172 179 192 193 191 197 203 206 203 197 201 201 187 184 185 182 182 187 189 188 184 178 176 186 201 207 214 235 245
197 195 189 183 183 183 179 181 186 188 186 188 190 190 187 178 176 182 187 188 185 174 162 158 165 182 182 167 165 168 171 170 168 169 171 174 182 187 186 191 199 203 203 199 199 199 193 190 189 186 184 185 185 187 195 194 183 185 203 219 221 227 236
197 193 187 185 186 182 180 182 186 187 188 190 193 195 188 180 180 184 184 181 177 168 164 163 163 178 178 160 162 168 169 172 168 162 170 176 177 182 186 191 199 199 197 199 197 195 194 192 189 187 187 189 189 186 193 199 193 185 195 216 228 227 227
197 190 187 188 185 181 182 184 186 189 191 193 196 192 178 170 173 178 175 169 168 165 164 165 164 167 163 156 163 164 161 168 164 153 166 182 180 184 187 187 192 194 193 196 199 198 196 194 190 188 189 192 194 186 181 195 199 192 194 207 218 220 222
197 192 190 189 184 181 183 186 189 194 196 197 193 179 166 161 160 161 160 156 158 160 160 163 162 158 150 150 154 146 140 156 162 150 151 176 171 177 188 190 192 193 192 195 200 201 197 196 196 194 193 196 195 190 181 194 201 201 201 205 210 215 219
197 195 193 188 184 184 185 189 193 197 200 195 179 165 162 161 157 152 147 146 155 167 165 153 150 151 149 140 141 138 130 147 161 153 143 167 171 170 181 194 204 203 198 197 197 195 193 195 198 196 195 196 196 196 194 197 206 213 213 209 210 217 223
201 197 192 187 186 187 188 191 194 197 193 177 164 163 161 155 154 154 151 155 168 180 171 149 145 147 146 136 139 145 142 149 160 158 148 154 175 184 181 192 218 212 205 201 192 189 192 195 195 195 196 196 194 197 199 201 214 226 222 215 213 215 218
204 199 191 187 186 187 188 190 192 190 177 163 161 168 163 154 154 155 156 166 180 188 168 151 148 150 149 142 144 149 148 151 156 165 169 153 158 178 183 153 208 210 209 205 196 191 192 195 194 192 193 191 189 192 194 196 215 226 220 217 218 213 212
204 201 193 187 185 184 184 186 186 175 163 161 166 170 164 157 156 156 159 172 184 186 164 151 151 157 158 153 151 150 152 156 154 162 182 186 177 187 196 193 209 205 196 197 198 194 188 185 187 184 181 182 184 190 191 192 205 214 213 214 217 214 210
203 201 193 186 182 181 180 178 174 164 159 163 169 169 163 156 155 160 166 174 177 172 162 158 160 164 162 157 158 159 158 160 157 154 164 176 187 196 193 183 235 189 178 185 195 196 188 178 176 175 175 176 182 194 198 195 195 202 207 208 212 214 212
198 196 190 183 175 174 173 168 164 163 166 170 168 164 162 159 158 164 170 174 173 168 165 166 169 167 165 165 168 168 164 161 159 157 157 164 177 176 150 82 48 145 171 180 187 192 193 182 175 179 184 190 198 199 197 194 192 200 208 206 210 216 214
195 192 188 182 173 169 165 160 161 164 165 165 161 161 165 165 164 168 175 176 172 171 170 168 171 172 170 174 176 169 165 163 158 161 176 207 224 192 133 92 40 71 159 174 180 189 194 186 180 188 201 205 202 197 196 195 190 195 204 208 215 218 218
193 189 185 182 177 172 164 158 159 162 160 158 159 165 171 171 168 173 181 180 175 179 181 175 176 179 172 172 175 171 170 171 163 162 180 204 224 215 167 139 8 31 134 169 180 190 192 187 186 196 206 200 195 200 204 202 196 193 199 206 213 217 223
191 184 178 180 179 172 168 165 164 163 163 161 162 170 176 176 173 177 184 184 180 184 187 184 184 185 175 168 170 171 178 180 171 164 178 188 195 198 188 219 352 49 133 164 175 185 192 194 198 205 208 201 197 199 202 203 203 204 208 213 218 222 231
184 177 174 179 179 171 168 170 168 166 164 161 163 173 179 178 176 179 183 187 187 189 189 188 187 185 176 168 167 166 172 178 167 159 174 167 143 163 180 183 157 135 142 154 164 176 190 201 211 218 221 220 217 213 212 213 216 219 222 227 230 234 243
178 176 176 177 174 169 168 169 167 166 163 161 166 175 180 181 180 180 182 184 183 183 184 186 190 189 181 171 165 158 155 160 156 160 178 165 131 135 148 154 161 156 141 147 165 176 179 187 203 214 222 226 229 233 236 234 232 232 235 238 240 243 250
174 174 176 175 171 168 169 169 168 168 167 169 176 180 181 182 181 178 174 166 158 156 158 165 174 182 184 181 176 167 157 149 146 158 180 180 160 152 151 151 160 159 147 154 175 184 184 187 198 208 217 221 224 230 235 238 241 243 243 244 246 247 251
171 170 171 174 173 172 175 175 173 175 179 179 181 182 180 178 175 171 165 157 152 149 147 149 152 158 170 180 181 178 171 162 156 162 176 183 186 183 177 174 177 174 168 170 177 188 196 203 213 222 228 229 227 229 231 234 239 244 246 247 248 248 248
162 165 165 169 171 172 176 178 176 178 181 179 177 176 173 170 167 167 166 162 158 157 155 154 154 154 157 166 173 178 180 179 176 174 173 176 183 187 189 197 204 207 209 207 203 205 207 212 221 229 233 233 233 235 239 241 241 242 244 247 249 251 250
145 156 159 162 164 164 166 169 169 168 171 172 168 165 163 166 171 175 178 175 168 164 163 163 163 165 166 167 171 174 179 184 184 178 170 168 171 180 191 202 212 219 224 227 227 227 226 229 235 240 243 244 246 249 251 250 248 244 244 246 249 252 254
127 139 147 150 153 154 156 159 159 157 158 161 162 161 159 162 170 176 181 182 178 173 172 172 172 173 174 176 176 170 167 176 183 183 180 175 169 172 184 198 211 221 229 235 239 241 242 244 246 250 253 255 258 259 259 259 258 255 253 254 254 255 257
110 121 131 138 141 143 147 149 152 154 155 157 165 173 161 151 158 166 168 171 176 178 178 178 179 179 182 185 186 183 180 179 178 179 183 185 183 186 194 204 214 225 235 244 250 254 256 257 259 262 264 266 269 270 271 272 273 272 270 268 267 266 265
95 100 105 114 121 125 132 142 151 159 168 180 196 202 185 170 175 180 174 170 177 179 177 181 185 186 189 191 191 195 200 196 188 188 194 197 202 213 222 228 235 243 251 259 265 269 273 275 279 281 281 283 284 284 285 284 283 284 283 282 280 279 278
87 90 94 101 105 103 107 121 135 150 167 180 188 189 181 167 160 163 162 161 169 175 174 181 185 183 186 190 190 198 211 218 220 225 229 230 232 242 252 258 264 267 271 276 280 282 285 288 291 292 292 292 292 290 290 290 289 289 290 289 289 288 287
78 80 83 91 95 92 90 92 95 99 111 124 132 136 133 124 115 115 117 116 126 150 157 177 193 191 193 202 207 215 231 245 249 252 256 257 256 260 266 274 280 282 284 289 291 293 295 295 297 297 297 296 296 295 294 293 294 295 296 296 298 298 297
80 80 80 83 88 88 87 89 90 90 92 95 95 91 87 86 84 80 81 90 113 133 113 90 118 162 195 255 253 250 252 258 266 273 280 283 280 275 275 279 286 292 297 299 301 302 301 299 297 294 293 293 292 292 292 292 296 303 309 312 314 314 312